Tracking 29493 objects as of 8-Sep-2024
HD Live streaming from Space Station
objects crossing your sky now

METEOR 2-8 DEB

Track METEOR 2-8 DEB now!
10-day predictions


NORAD ID: 36327
Int'l Code: 1982-025M
Perigee: 853.4 km
Apogee: 867.9 km
Inclination: 82.5 °
Period: 102.0 minutes
Semi major axis: 7231 km
RCS: 0.0052 m2 (small)
Launch date: March 25, 1982
Source: Commonwealth of Independent States (former USSR) (CIS)
Launch site: PLESETSK MISSILE AND SPACE COMPLEX (PKMTR)

Note: This is SATELLITE DEBRIS
Your satellite tracking list
Your tracking list is empty




NASA's NSSDC Master Catalog

Two Line Element Set (TLE):
1 36327U 82025M   24239.87069032  .00005583  00000-0  30573-2 0  9994
2 36327  82.4975  91.2116 0010040 188.1207 171.9808 14.11719017 44138
Source of the keplerian elements: AFSPC